Hyannis, MA

5:28 AM EDT on September 29, 2016 (GMT -0400)
Barnstable Municipal-Boardman-Polando Field

Weather History for KHYA - February, 2015

Change the Weather History Date:

Friday, February 27, 2015

  Actual Average Record
Temperature  
Mean Temperature 14 °F -  
Max Temperature 25 °F 37 °F 60 °F (1951)
Min Temperature 3 °F 22 °F 1 °F (1970)
Degree Days  
Heating Degree Days 51    
Moisture  
Dew Point 7 °F    
Average Humidity 62    
Maximum Humidity 80    
Minimum Humidity 48    
Precipitation  
Precipitation 0.00 in - - ()
Sea Level Pressure  
Sea Level Pressure 30.32 in    
Wind  
Wind Speed 6 mph (NNW)    
Max Wind Speed 14 mph    
Max Gust Speed 17 mph    
Visibility 10 miles    
Events      
Averages and records for this station are not official NWS values.
T = Trace of Precipitation, MM = Missing Value Source: NWS Daily Summary

Daily Weather History Graph

Daily Weather History Graph

Search for Another Location

Airport or City:

Trip Planner

Search our weather history database for the weather conditions in past years. The results will help you decide how hot, cold, wet, or windy it might be!

Date:

Astronomy

Feb. 27, 2015 Rise Set
Actual Time 6:19 AM EST 5:28 PM EST
Civil Twilight 5:51 AM EST 5:56 PM EST
Nautical Twilight 5:19 AM EST 6:29 PM EST
Astronomical Twilight 4:47 AM EST 7:01 PM EST
Moon 12:13 PM EST (2/27) 2:09 AM EST (2/27)
Length of Visible Light 12h 05m
Length of Day
11h 09m
Waxing Gibbous, 70% of the Moon is Illuminated
Feb 27
Waxing Gibbous
Mar 5
Full
Mar 13
Last Quarter
Mar 20
New
Mar 27
First Quarter

Hourly Weather History & Observations

Time (EST) Temp. Windchill Dew Point Humidity Pressure Visibility Wind Dir Wind Speed Gust Speed Precip Events Conditions
12:56 AM 21.9 °F 14.5 °F 12.0 °F 66% 30.09 in 10.0 mi North 5.8 mph - N/A   Scattered Clouds
1:56 AM 21.0 °F 16.2 °F 10.9 °F 65% 30.12 in 10.0 mi NNW 3.5 mph - N/A   Clear
2:56 AM 19.0 °F 12.3 °F 10.9 °F 71% 30.13 in 10.0 mi WNW 4.6 mph - N/A   Clear
3:56 AM 19.0 °F 10.0 °F 10.0 °F 68% 30.17 in 10.0 mi WNW 6.9 mph - N/A   Clear
4:56 AM 18.0 °F 11.1 °F 7.0 °F 62% 30.20 in 10.0 mi WNW 4.6 mph - N/A   Clear
5:56 AM 17.1 °F 8.7 °F 6.1 °F 62% 30.22 in 10.0 mi NW 5.8 mph - N/A   Clear
6:56 AM 18.0 °F 11.1 °F 8.1 °F 65% 30.25 in 10.0 mi NW 4.6 mph - N/A   Mostly Cloudy
7:56 AM 21.9 °F 12.5 °F 8.1 °F 55% 30.29 in 10.0 mi NW 8.1 mph - N/A   Clear
8:56 AM 21.9 °F 11.0 °F 9.0 °F 58% 30.30 in 10.0 mi NW 10.4 mph - N/A   Mostly Cloudy
9:56 AM 23.0 °F 10.6 °F 10.0 °F 58% 30.31 in 10.0 mi NNW 13.8 mph - N/A   Clear
10:56 AM 21.9 °F 12.5 °F 8.1 °F 55% 30.32 in 10.0 mi NW 8.1 mph 17.3 mph N/A   Scattered Clouds
11:56 AM 23.0 °F 12.4 °F 7.0 °F 50% 30.32 in 10.0 mi NNW 10.4 mph - N/A   Mostly Cloudy
12:56 PM 24.1 °F 12.5 °F 9.0 °F 53% 30.31 in 10.0 mi NNE 12.7 mph - N/A   Scattered Clouds
1:56 PM 24.1 °F 13.7 °F 8.1 °F 51% 30.32 in 10.0 mi NNE 10.4 mph - N/A   Clear
2:56 PM 25.0 °F - 8.1 °F 49% 30.34 in 10.0 mi North - - N/A   Clear
3:56 PM 24.1 °F 16.0 °F 7.0 °F 48% 30.36 in 10.0 mi NNE 6.9 mph - N/A   Clear
4:56 PM 23.0 °F 17.0 °F 8.1 °F 53% 30.38 in 10.0 mi NNE 4.6 mph - N/A   Clear
5:56 PM 18.0 °F - 7.0 °F 62% 30.40 in 10.0 mi Calm Calm - N/A   Clear
6:56 PM 15.1 °F - 5.0 °F 64% 30.43 in 10.0 mi Calm Calm - N/A   Clear
7:56 PM 10.9 °F - 3.0 °F 70% 30.44 in 10.0 mi Calm Calm - N/A   Clear
8:56 PM 9.0 °F - 1.9 °F 73% 30.45 in 10.0 mi Calm Calm - N/A   Clear
9:56 PM 6.1 °F - 1.0 °F 80% 30.48 in 10.0 mi Calm Calm - N/A   Clear
10:56 PM 3.9 °F - -0.9 °F 80% 30.50 in 10.0 mi Calm Calm - N/A   Clear
11:56 PM 3.0 °F -6.4 °F -2.0 °F 80% 30.51 in 10.0 mi NW 4.6 mph - N/A   Clear